Flag for Austria Weather past 2 weeks in Oberwart, Burgenland, Austria

Now
65 °F

Passing clouds.


Feels Like: 65 °F
Forecast: 55 / 72 °F
Wind: 2 mph from Northeast

Location: Eisenstadt

Current Time: May 30, 2015 at 9:04:26 AM

Latest Report: May 30, 2015 at 8:00 AM


Visibility: 19 mi

Pressure: 29.90 "Hg

Humidity: 65%

Dew point: 53 °F

Location of OberwartLocation

Historic Weather in Oberwart — Graph

°F

Oberwart temperature yesterday

Maximum temperature yesterday: 74 °F (at 4:00 PM)
Minimum temperature yesterday: 45 °F (at 5:00 AM)
Average temperature yesterday: 61 °F

Past Weeks' High & Low Weather Summary

 TemperatureHumidityPressure
High75 °F (May 19, 12:00 PM)95% (May 16, 12:00 AM)30.23 "Hg (May 16, 12:00 AM)
Low44 °F (May 28, 2:00 AM)41% (May 29, 5:00 PM)29.73 "Hg (May 19, 6:00 AM)
Average58 °F72%29.97 "Hg
* Reported May 15 8:00 AM — May 30 8:00 AM, Oberwart, Weather by CustomWeather, © 2015

Note: Actual official high and low records may vary slightly from our data, if they occured in-between our weather recording intervals... More about our weather records

Advertising

Oberwart weather history for previous 24 hours

 ConditionsComfort  
Time TempWeatherWind HumidityBarometerVisibility
8:00 AM
Sat, May 30
65 °FPassing clouds.2 mph65%29.90 "Hg19 mi
7:00 AM60 °FScattered clouds.2 mph76%29.90 "Hg19 mi
6:00 AM54 °FCool.1 mph88%29.90 "HgN/A
4:00 AM54 °FPassing clouds.3 mph89%29.88 "Hg12 mi
3:00 AM55 °FCool.3 mph87%29.86 "HgN/A
2:00 AM58 °FPassing clouds.5 mph80%29.85 "Hg12 mi
1:00 AM60 °FCool.5 mph73%29.84 "HgN/A
12:00 AM58 °FCool.2 mph79%29.86 "HgN/A
10:00 PM
Fri, May 29
61 °FCool.1 mph75%29.87 "HgN/A
9:00 PM65 °FMild.1 mph66%29.86 "HgN/A
8:00 PM69 °FPartly sunny.2 mph57%29.86 "Hg12 mi
7:00 PM71 °FOvercast.5 mph51%29.86 "Hg12 mi
6:00 PM73 °FMild.5 mph44%29.87 "HgN/A
5:00 PM74 °FMild.7 mph41%29.88 "HgN/A
4:00 PM74 °FMild.6 mph42%29.89 "HgN/A
3:00 PM74 °FMild.6 mph43%29.91 "HgN/A
2:00 PM72 °FPassing clouds.5 mph42%29.93 "Hg12 mi
1:00 PM70 °FMild.5 mph49%29.95 "HgN/A
12:00 PM66 °FMild.3 mph55%29.96 "HgN/A
11:00 AM65 °FPassing clouds.3 mph59%29.98 "Hg12 mi
10:00 AM62 °FCool.2 mph64%29.99 "HgN/A
9:00 AM58 °FCool.1 mph70%30.00 "HgN/A
Weather by CustomWeather, © 2015

See weather overviewHow to use our weather pages